Location: Unnamed
(51.0621°N, 13.7439°E)
Time: 08:57:51
(UTC+01:00)

ISS - Pass Details

Date: 03 November 2021
Orbit: 413 x 423 km, 51.6° (Epoch: 20 January)

Event Time Altitude Azimuth Distance (km) Brightness Sun altitude
Exits shadow 04:45:47 65° 77° (ENE) 459 -3.5 -21.5°
Drops below altitude 10° 04:48:43 10° 94° (E) 1,487 0.2 -21.1°
Sets 04:50:48 0° 95° (E) 2,348 1.6 -20.7°
